User: anonymous   Login
Location: Clatteringshaws Loch
(55.0508°N, 4.2860°W)
Time: 06:26:05
(UTC+01:00)
Language:

ALOS - Orbit

View from above orbital plane
View from above orbital plane
View from above satellite
View from above satellite

Ground track
Ground track

The orbit data is extracted from the following two-line orbital elements,

1 28931U 06002A   16268.02894438  .00000256  00000-0  59449-4 0  9990
2 28931  97.8763 302.2853 0002437  82.1792 277.9686 14.62243652568563
Epoch (UTC): 24 September 2016 00:41:40
Eccentricity: 0.0002437
inclination: 97.8763°
perigee height: 684 km
apogee height: 687 km
right ascension of ascending node: 302.2853°
argument of perigee: 82.1792°
revolutions per day: 14.62243652
mean anomaly at epoch: 277.9686°
orbit number at epoch: 56856

The dashed part of the orbit path shows where the satellite is in the earth's shadow,  

DLR